Year,Month,Day,Hour,Minute,Value (Times are PST for temperature in C)
2008,08,08,00,00,14.40
2008,08,08,00,01,14.40
2008,08,08,00,02,14.40
2008,08,08,00,03,14.40
2008,08,08,00,04,14.40
2008,08,08,00,05,14.30
2008,08,08,00,06,14.20
2008,08,08,00,07,14.20
2008,08,08,00,08,14.10
2008,08,08,00,09,14.10
2008,08,08,00,10,14.00
2008,08,08,00,11,13.90
2008,08,08,00,12,13.90
2008,08,08,00,13,13.90
2008,08,08,00,14,13.80
2008,08,08,00,15,13.80
2008,08,08,00,16,13.80
2008,08,08,00,17,13.80
2008,08,08,00,18,13.70
2008,08,08,00,19,13.70
2008,08,08,00,20,13.70
2008,08,08,00,21,13.70
2008,08,08,00,22,13.70
2008,08,08,00,23,13.60
2008,08,08,00,24,13.60
2008,08,08,00,25,13.60
2008,08,08,00,26,13.60
2008,08,08,00,27,13.60
2008,08,08,00,28,13.60
2008,08,08,00,29,13.60
2008,08,08,00,30,13.60
2008,08,08,00,31,13.60
2008,08,08,00,32,13.50
2008,08,08,00,33,13.50
2008,08,08,00,34,13.50
2008,08,08,00,35,13.50
2008,08,08,00,36,13.40
2008,08,08,00,37,13.40
2008,08,08,00,38,13.40
2008,08,08,00,39,13.40
2008,08,08,00,40,13.50
2008,08,08,00,41,13.50
2008,08,08,00,42,13.50
2008,08,08,00,43,13.50
2008,08,08,00,44,13.50
2008,08,08,00,45,13.40
2008,08,08,00,46,13.40
2008,08,08,00,47,13.30
2008,08,08,00,48,13.30
2008,08,08,00,49,13.20
2008,08,08,00,50,13.20
2008,08,08,00,51,13.10
2008,08,08,00,52,13.10
2008,08,08,00,53,13.10
2008,08,08,00,54,13.10
2008,08,08,00,55,13.10
2008,08,08,00,56,13.10
2008,08,08,00,57,13.10
2008,08,08,00,58,13.20
2008,08,08,00,59,13.20
2008,08,08,01,00,13.20
2008,08,08,01,01,13.30
2008,08,08,01,02,13.30
2008,08,08,01,03,13.30
2008,08,08,01,04,13.30
2008,08,08,01,05,13.30
2008,08,08,01,06,13.40
2008,08,08,01,07,13.40
2008,08,08,01,08,13.40
2008,08,08,01,09,13.40
2008,08,08,01,10,13.40
2008,08,08,01,11,13.40
2008,08,08,01,12,13.40
2008,08,08,01,13,13.40
2008,08,08,01,14,13.40
2008,08,08,01,15,13.40
2008,08,08,01,16,13.40
2008,08,08,01,17,13.40
2008,08,08,01,18,13.30
2008,08,08,01,19,13.30
2008,08,08,01,20,13.30
2008,08,08,01,21,13.30
2008,08,08,01,22,13.30
2008,08,08,01,23,13.30
2008,08,08,01,24,13.30
2008,08,08,01,25,13.30
2008,08,08,01,26,13.30
2008,08,08,01,27,13.30
2008,08,08,01,28,13.30
2008,08,08,01,29,13.40
2008,08,08,01,30,13.40
2008,08,08,01,31,13.40
2008,08,08,01,32,13.40
2008,08,08,01,33,13.40
2008,08,08,01,34,13.40
2008,08,08,01,35,13.40
2008,08,08,01,36,13.40
2008,08,08,01,37,13.40
2008,08,08,01,38,13.30
2008,08,08,01,39,13.30
2008,08,08,01,40,13.30
2008,08,08,01,41,13.30
2008,08,08,01,42,13.30
2008,08,08,01,43,13.30
2008,08,08,01,44,13.30
2008,08,08,01,45,13.20
2008,08,08,01,46,13.20
2008,08,08,01,47,13.10
2008,08,08,01,48,13.00
2008,08,08,01,49,13.00
2008,08,08,01,50,13.00
2008,08,08,01,51,12.90
2008,08,08,01,52,12.90
2008,08,08,01,53,12.90
2008,08,08,01,54,12.80
2008,08,08,01,55,12.80
2008,08,08,01,56,12.80
2008,08,08,01,57,12.80
2008,08,08,01,58,12.80
2008,08,08,01,59,12.80
2008,08,08,02,00,12.80
2008,08,08,02,01,12.80
2008,08,08,02,02,12.80
2008,08,08,02,03,12.80
2008,08,08,02,04,12.80
2008,08,08,02,05,12.80
2008,08,08,02,06,12.80
2008,08,08,02,07,12.80
2008,08,08,02,08,12.80
2008,08,08,02,09,12.80
2008,08,08,02,10,12.80
2008,08,08,02,11,12.80
2008,08,08,02,12,12.70
2008,08,08,02,13,12.70
2008,08,08,02,14,12.70
2008,08,08,02,15,12.70
2008,08,08,02,16,12.70
2008,08,08,02,17,12.70
2008,08,08,02,18,12.70
2008,08,08,02,19,12.70
2008,08,08,02,20,12.70
2008,08,08,02,21,12.70
2008,08,08,02,22,12.70
2008,08,08,02,23,12.60
2008,08,08,02,24,12.60
2008,08,08,02,25,12.60
2008,08,08,02,26,12.60
2008,08,08,02,27,12.60
2008,08,08,02,28,12.60
2008,08,08,02,29,12.60
2008,08,08,02,30,12.60
2008,08,08,02,31,12.50
2008,08,08,02,32,12.50
2008,08,08,02,33,12.50
2008,08,08,02,34,12.50
2008,08,08,02,35,12.50
2008,08,08,02,36,12.50
2008,08,08,02,37,12.50
2008,08,08,02,38,12.50
2008,08,08,02,39,12.50
2008,08,08,02,40,12.40
2008,08,08,02,41,12.40
2008,08,08,02,42,12.50
2008,08,08,02,43,12.50
2008,08,08,02,44,12.50
2008,08,08,02,45,12.50
2008,08,08,02,46,12.50
2008,08,08,02,47,12.50
2008,08,08,02,48,12.50
2008,08,08,02,49,12.50
2008,08,08,02,50,12.50
2008,08,08,02,51,12.50
2008,08,08,02,52,12.50
2008,08,08,02,53,12.40
2008,08,08,02,54,12.40
2008,08,08,02,55,12.40
2008,08,08,02,56,12.40
2008,08,08,02,57,12.40
2008,08,08,02,58,12.40
2008,08,08,02,59,12.40
2008,08,08,03,00,12.40
2008,08,08,03,01,12.30
2008,08,08,03,02,12.30
2008,08,08,03,03,12.30
2008,08,08,03,04,12.30
2008,08,08,03,05,12.30
2008,08,08,03,06,12.30
2008,08,08,03,07,12.30
2008,08,08,03,08,12.30
2008,08,08,03,09,12.30
2008,08,08,03,10,12.30
2008,08,08,03,11,12.30
2008,08,08,03,12,12.30
2008,08,08,03,13,12.30
2008,08,08,03,14,12.20
2008,08,08,03,15,12.20
2008,08,08,03,16,12.10
2008,08,08,03,17,12.10
2008,08,08,03,18,12.10
2008,08,08,03,19,12.00
2008,08,08,03,20,12.00
2008,08,08,03,21,11.90
2008,08,08,03,22,11.90
2008,08,08,03,23,11.90
2008,08,08,03,24,11.90
2008,08,08,03,25,11.80
2008,08,08,03,26,11.80
2008,08,08,03,27,11.80
2008,08,08,03,28,11.80
2008,08,08,03,29,11.80
2008,08,08,03,30,11.80
2008,08,08,03,31,11.80
2008,08,08,03,32,11.80
2008,08,08,03,33,11.80
2008,08,08,03,34,11.80
2008,08,08,03,35,11.80
2008,08,08,03,36,11.70
2008,08,08,03,37,11.70
2008,08,08,03,38,11.70
2008,08,08,03,39,11.70
2008,08,08,03,40,11.70
2008,08,08,03,41,11.70
2008,08,08,03,42,11.70
2008,08,08,03,43,11.70
2008,08,08,03,44,11.70
2008,08,08,03,45,11.70
2008,08,08,03,46,11.70
2008,08,08,03,47,11.70
2008,08,08,03,48,11.70
2008,08,08,03,49,11.70
2008,08,08,03,50,11.70
2008,08,08,03,51,11.80
2008,08,08,03,52,11.80
2008,08,08,03,53,11.80
2008,08,08,03,54,11.70
2008,08,08,03,55,11.70
2008,08,08,03,56,11.70
2008,08,08,03,57,11.70
2008,08,08,03,58,11.70
2008,08,08,03,59,11.70
2008,08,08,04,00,11.60
2008,08,08,04,01,11.60
2008,08,08,04,02,11.60
2008,08,08,04,03,11.60
2008,08,08,04,04,11.60
2008,08,08,04,05,11.60
2008,08,08,04,06,11.60
2008,08,08,04,07,11.60
2008,08,08,04,08,11.60
2008,08,08,04,09,11.60
2008,08,08,04,10,11.60
2008,08,08,04,11,11.60
2008,08,08,04,12,11.60
2008,08,08,04,13,11.60
2008,08,08,04,14,11.60
2008,08,08,04,15,11.60
2008,08,08,04,16,11.60
2008,08,08,04,17,11.60
2008,08,08,04,18,11.60
2008,08,08,04,19,11.60
2008,08,08,04,20,11.60
2008,08,08,04,21,11.60
2008,08,08,04,22,11.50
2008,08,08,04,23,11.40
2008,08,08,04,24,11.40
2008,08,08,04,25,11.40
2008,08,08,04,26,11.40
2008,08,08,04,27,11.40
2008,08,08,04,28,11.40
2008,08,08,04,29,11.40
2008,08,08,04,30,11.40
2008,08,08,04,31,11.40
2008,08,08,04,32,11.40
2008,08,08,04,33,11.40
2008,08,08,04,34,11.40
2008,08,08,04,35,11.30
2008,08,08,04,36,11.30
2008,08,08,04,37,11.30
2008,08,08,04,38,11.30
2008,08,08,04,39,11.30
2008,08,08,04,40,11.30
2008,08,08,04,41,11.30
2008,08,08,04,42,11.30
2008,08,08,04,43,11.30
2008,08,08,04,44,11.30
2008,08,08,04,45,11.30
2008,08,08,04,46,11.30
2008,08,08,04,47,11.20
2008,08,08,04,48,11.20
2008,08,08,04,49,11.20
2008,08,08,04,50,11.20
2008,08,08,04,51,11.20
2008,08,08,04,52,11.20
2008,08,08,04,53,11.20
2008,08,08,04,54,11.20
2008,08,08,04,55,11.20
2008,08,08,04,56,11.20
2008,08,08,04,57,11.20
2008,08,08,04,58,11.10
2008,08,08,04,59,11.10
2008,08,08,05,00,11.10
2008,08,08,05,01,11.10
2008,08,08,05,02,11.10
2008,08,08,05,03,11.10
2008,08,08,05,04,11.10
2008,08,08,05,05,11.10
2008,08,08,05,06,11.10
2008,08,08,05,07,11.10
2008,08,08,05,08,11.10
2008,08,08,05,09,11.10
2008,08,08,05,10,11.10
2008,08,08,05,11,11.10
2008,08,08,05,12,11.10
2008,08,08,05,13,11.10
2008,08,08,05,14,11.10
2008,08,08,05,15,11.10
2008,08,08,05,16,11.10
2008,08,08,05,17,11.10
2008,08,08,05,18,11.10
2008,08,08,05,19,11.00
2008,08,08,05,20,10.90
2008,08,08,05,21,10.90
2008,08,08,05,22,10.90
2008,08,08,05,23,10.90
2008,08,08,05,24,10.90
2008,08,08,05,25,10.90
2008,08,08,05,26,10.90
2008,08,08,05,27,10.90
2008,08,08,05,28,10.90
2008,08,08,05,29,10.90
2008,08,08,05,30,10.90
2008,08,08,05,31,10.90
2008,08,08,05,32,10.90
2008,08,08,05,33,10.90
2008,08,08,05,34,10.90
2008,08,08,05,35,10.90
2008,08,08,05,36,10.90
2008,08,08,05,37,10.90
2008,08,08,05,38,10.90
2008,08,08,05,39,10.90
2008,08,08,05,40,10.90
2008,08,08,05,41,10.90
2008,08,08,05,42,10.90
2008,08,08,05,43,10.90
2008,08,08,05,44,10.90
2008,08,08,05,45,10.90
2008,08,08,05,46,10.90
2008,08,08,05,47,10.90
2008,08,08,05,48,10.90
2008,08,08,05,49,10.90
2008,08,08,05,50,10.90
2008,08,08,05,51,10.90
2008,08,08,05,52,10.90
2008,08,08,05,53,10.90
2008,08,08,05,54,10.90
2008,08,08,05,55,10.90
2008,08,08,05,56,10.90
2008,08,08,05,57,10.90
2008,08,08,05,58,10.90
2008,08,08,05,59,10.90
2008,08,08,06,00,10.90
2008,08,08,06,01,10.90
2008,08,08,06,02,10.90
2008,08,08,06,03,10.90
2008,08,08,06,04,10.90
2008,08,08,06,05,10.90
2008,08,08,06,06,10.80
2008,08,08,06,07,10.80
2008,08,08,06,08,10.80
2008,08,08,06,09,10.80
2008,08,08,06,10,10.80
2008,08,08,06,11,10.80
2008,08,08,06,12,10.80
2008,08,08,06,13,10.80
2008,08,08,06,14,10.80
2008,08,08,06,15,10.80
2008,08,08,06,16,10.80
2008,08,08,06,17,10.80
2008,08,08,06,18,10.80
2008,08,08,06,19,10.70
2008,08,08,06,20,10.70
2008,08,08,06,21,10.70
2008,08,08,06,22,10.70
2008,08,08,06,23,10.70
2008,08,08,06,24,10.70
2008,08,08,06,25,10.70
2008,08,08,06,26,10.70
2008,08,08,06,27,10.70
2008,08,08,06,28,10.70
2008,08,08,06,29,10.70
2008,08,08,06,30,10.70
2008,08,08,06,31,10.70
2008,08,08,06,32,10.70
2008,08,08,06,33,10.70
2008,08,08,06,34,10.70
2008,08,08,06,35,10.70
2008,08,08,06,36,10.70
2008,08,08,06,37,10.70
2008,08,08,06,38,10.80
2008,08,08,06,39,10.80
2008,08,08,06,40,10.80
2008,08,08,06,41,10.80
2008,08,08,06,42,10.80
2008,08,08,06,43,10.80
2008,08,08,06,44,10.80
2008,08,08,06,45,10.80
2008,08,08,06,46,10.80
2008,08,08,06,47,10.80
2008,08,08,06,48,10.70
2008,08,08,06,49,10.70
2008,08,08,06,50,10.70
2008,08,08,06,51,10.70
2008,08,08,06,52,10.80
2008,08,08,06,53,10.80
2008,08,08,06,54,10.80
2008,08,08,06,55,10.80
2008,08,08,06,56,10.80
2008,08,08,06,57,10.80
2008,08,08,06,58,10.80
2008,08,08,06,59,10.90
2008,08,08,07,00,10.90
2008,08,08,07,01,10.90
2008,08,08,07,02,10.90
2008,08,08,07,03,10.90
2008,08,08,07,04,10.90
2008,08,08,07,05,10.90
2008,08,08,07,06,10.90
2008,08,08,07,07,10.90
2008,08,08,07,08,10.90
2008,08,08,07,09,10.90
2008,08,08,07,10,10.90
2008,08,08,07,11,10.90
2008,08,08,07,12,10.90
2008,08,08,07,13,10.90
2008,08,08,07,14,10.90
2008,08,08,07,15,10.90
2008,08,08,07,16,10.90
2008,08,08,07,17,10.90
2008,08,08,07,18,11.00
2008,08,08,07,19,11.10
2008,08,08,07,20,11.10
2008,08,08,07,21,11.10
2008,08,08,07,22,11.10
2008,08,08,07,23,11.10
2008,08,08,07,24,11.10
2008,08,08,07,25,11.10
2008,08,08,07,26,11.10
2008,08,08,07,27,11.10
2008,08,08,07,28,11.10
2008,08,08,07,29,11.10
2008,08,08,07,30,11.10
2008,08,08,07,31,10.90
2008,08,08,07,32,10.90
2008,08,08,07,33,10.90
2008,08,08,07,34,10.90
2008,08,08,07,35,10.90
2008,08,08,07,36,10.90
2008,08,08,07,37,10.90
2008,08,08,07,38,10.90
2008,08,08,07,39,10.90
2008,08,08,07,40,10.90
2008,08,08,07,41,10.90
2008,08,08,07,42,10.90
2008,08,08,07,43,10.90
2008,08,08,07,44,10.90
2008,08,08,07,45,10.90
2008,08,08,07,46,10.90
2008,08,08,07,47,10.90
2008,08,08,07,48,10.90
2008,08,08,07,49,10.90
2008,08,08,07,50,10.90
2008,08,08,07,51,10.90
2008,08,08,07,52,10.90
2008,08,08,07,53,10.90
2008,08,08,07,54,10.90
2008,08,08,07,55,10.90
2008,08,08,07,56,10.90
2008,08,08,07,57,10.90
2008,08,08,07,58,10.90
2008,08,08,07,59,10.90
2008,08,08,08,00,10.90
2008,08,08,08,01,10.90
2008,08,08,08,02,10.90
2008,08,08,08,03,11.00
2008,08,08,08,04,11.10
2008,08,08,08,05,11.10
2008,08,08,08,06,11.10
2008,08,08,08,07,11.10
2008,08,08,08,08,11.20
2008,08,08,08,09,11.20
2008,08,08,08,10,11.20
2008,08,08,08,11,11.20
2008,08,08,08,12,11.20
2008,08,08,08,13,11.30
2008,08,08,08,14,11.30
2008,08,08,08,15,11.30
2008,08,08,08,16,11.40
2008,08,08,08,17,11.40
2008,08,08,08,18,11.40
2008,08,08,08,19,11.40
2008,08,08,08,20,11.40
2008,08,08,08,21,11.60
2008,08,08,08,22,11.60
2008,08,08,08,23,11.60
2008,08,08,08,24,11.60
2008,08,08,08,25,11.70
2008,08,08,08,26,11.80
2008,08,08,08,27,11.80
2008,08,08,08,28,11.80
2008,08,08,08,29,11.80
2008,08,08,08,30,11.80
2008,08,08,08,31,11.70
2008,08,08,08,32,11.70
2008,08,08,08,33,11.70
2008,08,08,08,34,11.70
2008,08,08,08,35,11.70
2008,08,08,08,36,11.80
2008,08,08,08,37,11.80
2008,08,08,08,38,11.80
2008,08,08,08,39,11.80
2008,08,08,08,40,11.70
2008,08,08,08,41,11.70
2008,08,08,08,42,11.60
2008,08,08,08,43,11.60
2008,08,08,08,44,11.60
2008,08,08,08,45,11.60
2008,08,08,08,46,11.60
2008,08,08,08,47,11.70
2008,08,08,08,48,11.70
2008,08,08,08,49,11.70
2008,08,08,08,50,11.70
2008,08,08,08,51,11.80
2008,08,08,08,52,11.80
2008,08,08,08,53,11.70
2008,08,08,08,54,11.70
2008,08,08,08,55,11.70
2008,08,08,08,56,11.70
2008,08,08,08,57,11.70
2008,08,08,08,58,11.70
2008,08,08,08,59,11.70
2008,08,08,09,00,11.60
2008,08,08,09,01,11.70
2008,08,08,09,02,11.70
2008,08,08,09,03,11.70
2008,08,08,09,04,11.70
2008,08,08,09,05,11.70
2008,08,08,09,06,11.80
2008,08,08,09,07,11.80
2008,08,08,09,08,11.80
2008,08,08,09,09,11.80
2008,08,08,09,10,11.80
2008,08,08,09,11,11.80
2008,08,08,09,12,11.80
2008,08,08,09,13,11.90
2008,08,08,09,14,11.90
2008,08,08,09,15,11.90
2008,08,08,09,16,11.90
2008,08,08,09,17,12.00
2008,08,08,09,18,12.00
2008,08,08,09,19,12.10
2008,08,08,09,20,12.10
2008,08,08,09,21,12.20
2008,08,08,09,22,12.20
2008,08,08,09,23,12.30
2008,08,08,09,24,12.30
2008,08,08,09,25,12.30
2008,08,08,09,26,12.30
2008,08,08,09,27,12.30
2008,08,08,09,28,12.40
2008,08,08,09,29,12.50
2008,08,08,09,30,12.50
2008,08,08,09,31,12.50
2008,08,08,09,32,12.60
2008,08,08,09,33,12.60
2008,08,08,09,34,12.50
2008,08,08,09,35,12.50
2008,08,08,09,36,12.50
2008,08,08,09,37,12.50
2008,08,08,09,38,12.60
2008,08,08,09,39,12.60
2008,08,08,09,40,12.60
2008,08,08,09,41,12.70
2008,08,08,09,42,12.70
2008,08,08,09,43,12.70
2008,08,08,09,44,12.70
2008,08,08,09,45,12.60
2008,08,08,09,46,12.60
2008,08,08,09,47,12.60
2008,08,08,09,48,12.60
2008,08,08,09,49,12.60
2008,08,08,09,50,12.50
2008,08,08,09,51,12.50
2008,08,08,09,52,12.50
2008,08,08,09,53,12.50
2008,08,08,09,54,12.50
2008,08,08,09,55,12.50
2008,08,08,09,56,12.50
2008,08,08,09,57,12.50
2008,08,08,09,58,12.50
2008,08,08,09,59,12.60
2008,08,08,10,00,12.50
2008,08,08,10,01,12.50
2008,08,08,10,02,12.50
2008,08,08,10,03,12.50
2008,08,08,10,04,12.50
2008,08,08,10,05,12.60
2008,08,08,10,06,12.60
2008,08,08,10,07,12.70
2008,08,08,10,08,12.70
2008,08,08,10,09,12.70
2008,08,08,10,10,12.80
2008,08,08,10,11,12.80
2008,08,08,10,12,12.80
2008,08,08,10,13,12.80
2008,08,08,10,14,12.90
2008,08,08,10,15,13.00
2008,08,08,10,16,13.00
2008,08,08,10,17,13.00
2008,08,08,10,18,13.00
2008,08,08,10,19,13.00
2008,08,08,10,20,13.10
2008,08,08,10,21,13.10
2008,08,08,10,22,13.20
2008,08,08,10,23,13.20
2008,08,08,10,24,13.20
2008,08,08,10,25,13.20
2008,08,08,10,26,13.30
2008,08,08,10,27,13.30
2008,08,08,10,28,13.30
2008,08,08,10,29,13.30
2008,08,08,10,30,13.30
2008,08,08,10,31,13.30
2008,08,08,10,32,13.30
2008,08,08,10,33,13.30
2008,08,08,10,34,13.30
2008,08,08,10,35,13.30
2008,08,08,10,36,13.30
2008,08,08,10,37,13.30
2008,08,08,10,38,13.30
2008,08,08,10,39,13.20
2008,08,08,10,40,13.20
2008,08,08,10,41,13.20
2008,08,08,10,42,13.20
2008,08,08,10,43,13.30
2008,08,08,10,44,13.30
2008,08,08,10,45,13.30
2008,08,08,10,46,13.30
2008,08,08,10,47,13.40
2008,08,08,10,48,13.40
2008,08,08,10,49,13.40
2008,08,08,10,50,13.40
2008,08,08,10,51,13.50
2008,08,08,10,52,13.60
2008,08,08,10,53,13.60
2008,08,08,10,54,13.60
2008,08,08,10,55,13.50
2008,08,08,10,56,13.50
2008,08,08,10,57,13.50
2008,08,08,10,58,13.50
2008,08,08,10,59,13.50
2008,08,08,11,00,13.50
2008,08,08,11,01,13.40
2008,08,08,11,02,13.40
2008,08,08,11,03,13.50
2008,08,08,11,04,13.60
2008,08,08,11,05,13.70
2008,08,08,11,06,13.80
2008,08,08,11,07,13.80
2008,08,08,11,08,13.90
2008,08,08,11,09,13.90
2008,08,08,11,10,14.00
2008,08,08,11,11,14.00
2008,08,08,11,12,13.90
2008,08,08,11,13,13.90
2008,08,08,11,14,14.00
2008,08,08,11,15,14.00
2008,08,08,11,16,14.10
2008,08,08,11,17,14.10
2008,08,08,11,18,14.20
2008,08,08,11,19,14.20
2008,08,08,11,20,14.20
2008,08,08,11,21,14.20
2008,08,08,11,22,14.10
2008,08,08,11,23,14.10
2008,08,08,11,24,14.10
2008,08,08,11,25,14.10
2008,08,08,11,26,14.10
2008,08,08,11,27,14.00
2008,08,08,11,28,14.00
2008,08,08,11,29,13.90
2008,08,08,11,30,13.90
2008,08,08,11,31,13.90
2008,08,08,11,32,13.80
2008,08,08,11,33,13.80
2008,08,08,11,34,13.70
2008,08,08,11,35,13.70
2008,08,08,11,36,13.70
2008,08,08,11,37,13.70
2008,08,08,11,38,13.70
2008,08,08,11,39,13.70
2008,08,08,11,40,13.70
2008,08,08,11,41,13.70
2008,08,08,11,42,13.70
2008,08,08,11,43,13.80
2008,08,08,11,44,13.80
2008,08,08,11,45,13.90
2008,08,08,11,46,13.90
2008,08,08,11,47,14.00
2008,08,08,11,48,14.00
2008,08,08,11,49,14.10
2008,08,08,11,50,14.20
2008,08,08,11,51,14.20
2008,08,08,11,52,14.30
2008,08,08,11,53,14.30
2008,08,08,11,54,14.30
2008,08,08,11,55,14.40
2008,08,08,11,56,14.50
2008,08,08,11,57,14.50
2008,08,08,11,58,14.50
2008,08,08,11,59,14.40
2008,08,08,12,00,14.40
2008,08,08,12,01,14.40
2008,08,08,12,02,14.40
2008,08,08,12,03,14.40
2008,08,08,12,04,14.40
2008,08,08,12,05,14.50
2008,08,08,12,06,14.50
2008,08,08,12,07,14.50
2008,08,08,12,08,14.40
2008,08,08,12,09,14.50
2008,08,08,12,10,14.50
2008,08,08,12,11,14.50
2008,08,08,12,12,14.60
2008,08,08,12,13,14.60
2008,08,08,12,14,14.70
2008,08,08,12,15,14.70
2008,08,08,12,16,14.80
2008,08,08,12,17,14.80
2008,08,08,12,18,14.80
2008,08,08,12,19,14.80
2008,08,08,12,20,14.80
2008,08,08,12,21,14.90
2008,08,08,12,22,15.00
2008,08,08,12,23,15.00
2008,08,08,12,24,15.10
2008,08,08,12,25,15.10
2008,08,08,12,26,15.10
2008,08,08,12,27,15.10
2008,08,08,12,28,15.00
2008,08,08,12,29,14.90
2008,08,08,12,30,14.90
2008,08,08,12,31,14.90
2008,08,08,12,32,14.90
2008,08,08,12,33,14.90
2008,08,08,12,34,14.90
2008,08,08,12,35,14.90
2008,08,08,12,36,15.00
2008,08,08,12,37,15.00
2008,08,08,12,38,15.00
2008,08,08,12,39,15.10
2008,08,08,12,40,15.10
2008,08,08,12,41,15.00
2008,08,08,12,42,15.00
2008,08,08,12,43,15.00
2008,08,08,12,44,15.10
2008,08,08,12,45,15.10
2008,08,08,12,46,15.10
2008,08,08,12,47,15.20
2008,08,08,12,48,15.30
2008,08,08,12,49,15.30
2008,08,08,12,50,15.40
2008,08,08,12,51,15.40
2008,08,08,12,52,15.50
2008,08,08,12,53,15.50
2008,08,08,12,54,15.60
2008,08,08,12,55,15.70
2008,08,08,12,56,15.70
2008,08,08,12,57,15.80
2008,08,08,12,58,15.80
2008,08,08,12,59,15.70
2008,08,08,13,00,15.80
2008,08,08,13,01,15.80
2008,08,08,13,02,15.80
2008,08,08,13,03,15.80
2008,08,08,13,04,15.80
2008,08,08,13,05,15.80
2008,08,08,13,06,15.80
2008,08,08,13,07,15.80
2008,08,08,13,08,15.80
2008,08,08,13,09,15.80
2008,08,08,13,10,15.80
2008,08,08,13,11,15.80
2008,08,08,13,12,15.80
2008,08,08,13,13,15.80
2008,08,08,13,14,15.70
2008,08,08,13,15,15.70
2008,08,08,13,16,15.80
2008,08,08,13,17,15.80
2008,08,08,13,18,15.80
2008,08,08,13,19,15.80
2008,08,08,13,20,15.80
2008,08,08,13,21,15.80
2008,08,08,13,22,15.90
2008,08,08,13,23,16.00
2008,08,08,13,24,16.10
2008,08,08,13,25,16.10
2008,08,08,13,26,16.10
2008,08,08,13,27,16.00
2008,08,08,13,28,15.90
2008,08,08,13,29,15.90
2008,08,08,13,30,15.90
2008,08,08,13,31,15.90
2008,08,08,13,32,15.80
2008,08,08,13,33,15.80
2008,08,08,13,34,15.80
2008,08,08,13,35,15.90
2008,08,08,13,36,15.90
2008,08,08,13,37,15.80
2008,08,08,13,38,15.80
2008,08,08,13,39,15.70
2008,08,08,13,40,15.70
2008,08,08,13,41,15.70
2008,08,08,13,42,15.70
2008,08,08,13,43,15.80
2008,08,08,13,44,15.80
2008,08,08,13,45,15.80
2008,08,08,13,46,15.80
2008,08,08,13,47,15.80
2008,08,08,13,48,15.90
2008,08,08,13,49,16.00
2008,08,08,13,50,16.10
2008,08,08,13,51,16.10
2008,08,08,13,52,16.10
2008,08,08,13,53,16.10
2008,08,08,13,54,16.10
2008,08,08,13,55,16.10
2008,08,08,13,56,16.20
2008,08,08,13,57,16.10
2008,08,08,13,58,16.20
2008,08,08,13,59,16.20
2008,08,08,14,00,16.20
2008,08,08,14,01,16.30
2008,08,08,14,02,16.40
2008,08,08,14,03,16.40
2008,08,08,14,04,16.30
2008,08,08,14,05,16.40
2008,08,08,14,06,16.40
2008,08,08,14,07,16.40
2008,08,08,14,08,16.40
2008,08,08,14,09,16.50
2008,08,08,14,10,16.60
2008,08,08,14,11,16.60
2008,08,08,14,12,16.60
2008,08,08,14,13,16.60
2008,08,08,14,14,16.50
2008,08,08,14,15,16.40
2008,08,08,14,16,16.30
2008,08,08,14,17,16.30
2008,08,08,14,18,16.20
2008,08,08,14,19,16.20
2008,08,08,14,20,16.20
2008,08,08,14,21,16.30
2008,08,08,14,22,16.30
2008,08,08,14,23,16.30
2008,08,08,14,24,16.30
2008,08,08,14,25,16.40
2008,08,08,14,26,16.40
2008,08,08,14,27,16.50
2008,08,08,14,28,16.60
2008,08,08,14,29,16.70
2008,08,08,14,30,16.70
2008,08,08,14,31,16.70
2008,08,08,14,32,16.70
2008,08,08,14,33,16.70
2008,08,08,14,34,16.60
2008,08,08,14,35,16.50
2008,08,08,14,36,16.50
2008,08,08,14,37,16.60
2008,08,08,14,38,16.60
2008,08,08,14,39,16.70
2008,08,08,14,40,16.80
2008,08,08,14,41,16.90
2008,08,08,14,42,17.00
2008,08,08,14,43,17.00
2008,08,08,14,44,17.10
2008,08,08,14,45,17.10
2008,08,08,14,46,17.10
2008,08,08,14,47,17.00
2008,08,08,14,48,16.90
2008,08,08,14,49,16.90
2008,08,08,14,50,16.80
2008,08,08,14,51,16.70
2008,08,08,14,52,16.60
2008,08,08,14,53,16.60
2008,08,08,14,54,16.40
2008,08,08,14,55,16.40
2008,08,08,14,56,16.40
2008,08,08,14,57,16.40
2008,08,08,14,58,16.40
2008,08,08,14,59,16.40
2008,08,08,15,00,16.40
2008,08,08,15,01,16.40
2008,08,08,15,02,16.60
2008,08,08,15,03,16.60
2008,08,08,15,04,16.70
2008,08,08,15,05,16.70
2008,08,08,15,06,16.70
2008,08,08,15,07,16.70
2008,08,08,15,08,16.70
2008,08,08,15,09,16.70
2008,08,08,15,10,16.70
2008,08,08,15,11,16.70
2008,08,08,15,12,16.70
2008,08,08,15,13,16.80
2008,08,08,15,14,16.80
2008,08,08,15,15,16.70
2008,08,08,15,16,16.70
2008,08,08,15,17,16.70
2008,08,08,15,18,16.70
2008,08,08,15,19,16.70
2008,08,08,15,20,16.70
2008,08,08,15,21,16.80
2008,08,08,15,22,16.80
2008,08,08,15,23,16.80
2008,08,08,15,24,16.90
2008,08,08,15,25,16.90
2008,08,08,15,26,16.90
2008,08,08,15,27,16.90
2008,08,08,15,28,16.80
2008,08,08,15,29,16.80
2008,08,08,15,30,16.80
2008,08,08,15,31,16.80
2008,08,08,15,32,16.80
2008,08,08,15,33,16.70
2008,08,08,15,34,16.80
2008,08,08,15,35,16.80
2008,08,08,15,36,16.80
2008,08,08,15,37,16.80
2008,08,08,15,38,16.80
2008,08,08,15,39,16.80
2008,08,08,15,40,16.90
2008,08,08,15,41,16.90
2008,08,08,15,42,16.90
2008,08,08,15,43,16.90
2008,08,08,15,44,16.90
2008,08,08,15,45,16.90
2008,08,08,15,46,16.90
2008,08,08,15,47,16.90
2008,08,08,15,48,17.00
2008,08,08,15,49,17.00
2008,08,08,15,50,17.10
2008,08,08,15,51,17.10
2008,08,08,15,52,17.10
2008,08,08,15,53,17.10
2008,08,08,15,54,17.20
2008,08,08,15,55,17.20
2008,08,08,15,56,17.20
2008,08,08,15,57,17.20
2008,08,08,15,58,17.20
2008,08,08,15,59,17.20
2008,08,08,16,00,17.30
2008,08,08,16,01,17.30
2008,08,08,16,02,17.30
2008,08,08,16,03,17.30
2008,08,08,16,04,17.30
2008,08,08,16,05,17.20
2008,08,08,16,06,17.20
2008,08,08,16,07,17.10
2008,08,08,16,08,17.00
2008,08,08,16,09,17.00
2008,08,08,16,10,17.00
2008,08,08,16,11,16.90
2008,08,08,16,12,16.90
2008,08,08,16,13,16.90
2008,08,08,16,14,16.80
2008,08,08,16,15,16.80
2008,08,08,16,16,16.80
2008,08,08,16,17,16.80
2008,08,08,16,18,16.80
2008,08,08,16,19,16.80
2008,08,08,16,20,16.90
2008,08,08,16,21,16.90
2008,08,08,16,22,16.90
2008,08,08,16,23,16.90
2008,08,08,16,24,16.90
2008,08,08,16,25,17.00
2008,08,08,16,26,17.00
2008,08,08,16,27,16.90
2008,08,08,16,28,16.90
2008,08,08,16,29,16.90
2008,08,08,16,30,16.90
2008,08,08,16,31,17.00
2008,08,08,16,32,17.00
2008,08,08,16,33,16.90
2008,08,08,16,34,16.90
2008,08,08,16,35,16.80
2008,08,08,16,36,16.70
2008,08,08,16,37,16.70
2008,08,08,16,38,16.70
2008,08,08,16,39,16.70
2008,08,08,16,40,16.80
2008,08,08,16,41,16.80
2008,08,08,16,42,16.80
2008,08,08,16,43,16.90
2008,08,08,16,44,16.90
2008,08,08,16,45,17.00
2008,08,08,16,46,17.00
2008,08,08,16,47,17.10
2008,08,08,16,48,17.20
2008,08,08,16,49,17.20
2008,08,08,16,50,17.30
2008,08,08,16,51,17.30
2008,08,08,16,52,17.30
2008,08,08,16,53,17.30
2008,08,08,16,54,17.30
2008,08,08,16,55,17.30
2008,08,08,16,56,17.30
2008,08,08,16,57,17.30
2008,08,08,16,58,17.30
2008,08,08,16,59,17.20
2008,08,08,17,00,17.00
2008,08,08,17,01,17.00
2008,08,08,17,02,16.90
2008,08,08,17,03,17.00
2008,08,08,17,04,17.00
2008,08,08,17,05,17.10
2008,08,08,17,06,17.00
2008,08,08,17,07,17.00
2008,08,08,17,08,17.00
2008,08,08,17,09,17.00
2008,08,08,17,10,17.00
2008,08,08,17,11,17.00
2008,08,08,17,12,16.90
2008,08,08,17,13,16.90
2008,08,08,17,14,16.90
2008,08,08,17,15,16.90
2008,08,08,17,16,16.80
2008,08,08,17,17,16.80
2008,08,08,17,18,16.80
2008,08,08,17,19,16.80